This is the latest recevied weather packets stored in our database for station/object K9APR. If no packets are shown the sender has not sent any weather packets the latest 10 day(s).
| Time | Temp. | Humidity | Pressure | Rain* | Wind** | Luminosity | Snow |
|---|---|---|---|---|---|---|---|
| 1777411740 | 20° C | 68% | 1013.3 hPa | 0 mm | - | - | - |
| 1777411200 | 20° C | 69% | 1013.5 hPa | 0 mm | - | - | - |
| 1777410659 | 20° C | 69% | 1013.7 hPa | 0 mm | - | - | - |
| 1777410120 | 20° C | 71% | 1013.9 hPa | 0 mm | - | - | - |
| 1777409581 | 19.44° C | 70% | 1013.8 hPa | 0 mm | - | - | - |
| 1777409040 | 18.89° C | 70% | 1014 hPa | 0 mm | - | - | - |
| 1777408500 | 19.44° C | 70% | 1014.2 hPa | 0 mm | - | - | - |
| 1777407959 | 19.44° C | 70% | 1014.5 hPa | 0 mm | - | - | - |
| 1777407419 | 18.89° C | 71% | 1014.4 hPa | 0 mm | - | - | - |
| 1777406880 | 18.89° C | 70% | 1014.4 hPa | 0 mm | - | - | - |
| 1777406340 | 19.44° C | 70% | 1014.3 hPa | 0 mm | - | - | - |
| 1777405799 | 20° C | 72% | 1014.3 hPa | 0 mm | - | - | - |
| 1777405260 | 19.44° C | 72% | 1014.2 hPa | 0 mm | - | - | - |
| 1777404720 | 20° C | 71% | 1014.3 hPa | 0 mm | - | - | - |
| 1777404179 | 20° C | 72% | 1014.1 hPa | 0 mm | - | - | - |
| 1777403639 | 19.44° C | 72% | 1014.1 hPa | 0 mm | - | - | - |
| 1777403100 | 19.44° C | 74% | 1014.2 hPa | 0 mm | - | - | - |
| 1777402559 | 19.44° C | 71% | 1014.2 hPa | 0 mm | - | - | - |
| 1777402019 | 18.89° C | 74% | 1014.2 hPa | 0 mm | - | - | - |
| 1777401479 | 18.89° C | 72% | 1014.2 hPa | 0 mm | - | - | - |
| 1777400939 | 18.89° C | 74% | 1013.9 hPa | 0 mm | - | - | - |
| 1777400400 | 18.89° C | 73% | 1014.1 hPa | 0 mm | - | - | - |
| 1777399861 | 18.89° C | 75% | 1014.2 hPa | 0 mm | - | - | - |
| 1777399319 | 18.33° C | 75% | 1014.2 hPa | 0 mm | - | - | - |
| 1777398780 | 17.78° C | 75% | 1014.3 hPa | 0 mm | - | - | - |
* Rain latest hour (hover to see other rain measurements)
** Current wind speed in m/s (hover to see current wind gust speed)